Regional Weather Roundup
Issued by NWS Kansas City/Pleasant Hill, MO

Home | Current Version | Previous Version | Graphics & Text | Print | Product List | Glossary Off
Versions: 1 2 3 4 5 6 7 8 9 10 11 12 13 14 15 16 17 18 19 20 21 22 23 24 25 26 27 28 29 30 31 32 33 34 35 36 37 38 39 40 41 42 43 44 45 46 47 48 49 50

178
ASUS43 KEAX 240310
RWREAX

WEATHER ROUNDUP FOR EASTERN KANSAS AND NORTHWEST MISSOURI
NATIONAL WEATHER SERVICE KANSAS CITY/PLEASANT HILL MO
900 PM CST THU FEB 23 2017

KSZ040-057-103>105-MOZ028-029-037-043-240400-
...KANSAS CITY METROPOLITAN AREA...

CITY           SKY/WX    TMP DP  RH WIND       PRES   REMARKS
K.C. INTL      PTCLDY    48  45  89 E14       29.39F
K.C. DOWNTOWN  CLEAR     50  46  86 E8        29.39F
LEES SUMMIT    CLOUDY    50  48  93 E15       29.39F
OLATHE - IXD   CLEAR     51  46  83 E14       29.37F
OLATHE - OJC   CLEAR     50  48  93 E12G20    29.38F
LAWRENCE       CLEAR     48  44  86 NE7       29.39S

$$

MOZ001>008-011>017-020>025-030>033-038>040-044>046-053-054-240400-
...NORTHERN AND CENTRAL MISSOURI...

CITY           SKY/WX    TMP DP  RH WIND       PRES   REMARKS
ST. JOSEPH     CLOUDY    48  45  89 NE9       29.44S
MOSBY          CLEAR     50  45  81 NE7       29.41F
WARRENSBURG    CLEAR     50  46  87 NE7       29.40F
WHITEMAN AFB   PTCLDY    52  52 100 E5        29.40F
CLINTON        CLEAR     57  48  72 CALM      29.40S
SEDALIA        PTCLDY    60  52  74 NE3       29.43R
WARSAW         NOT AVBL
CHILLICOTHE      N/A     50  47  89 NE12      29.46F
KIRKSVILLE     CLOUDY    50  48  93 NE8       29.48F

$$

MOZ041-047>049-056>058-063>065-088>090-097-240400-
...EASTERN AND SOUTHERN MISSOURI...

CITY           SKY/WX    TMP DP  RH WIND       PRES   REMARKS
ST. LOUIS INTL PTCLDY    66  54  65 SE10      29.54S
SPIRIT OF STL  PTCLDY    62  56  80 E5        29.52S
COLUMBIA       PTCLDY    63  55  75 SE13      29.43F
JEFFERSON CITY CLEAR     61  53  75 SE10      29.44F
ROLLA          CLEAR     63  56  78 S13       29.48R
SPRINGFIELD    CLEAR     68  49  50 S16       29.47R
BRANSON        PTCLDY    68  48  49 S10G17    29.52R
JOPLIN         CLEAR     74  46  36 S24G36    29.40S
WEST PLAINS    CLOUDY    65  57  75 S14       29.56S

$$

IAZ060-094-KSZ022-034>040-054-083-096-NEZ052-066-093-240400-
...KANSAS...SOUTHEAST NEBRASKA AND IOWA...

CITY           SKY/WX    TMP DP  RH WIND       PRES   REMARKS
TOPEKA         CLEAR     46  44  93 N8        29.39F
MANHATTAN      CLOUDY    46  38  73 N10G20    29.49R
EMPORIA        PTCLDY    51  46  83 N9        29.37R
CHANUTE        TSTM      68  49  50 W3        29.35R
WICHITA        PTCLDY    45  38  76 NW28G44   29.46R
OMAHA          RAIN      36  32  85 N21G28    29.57F FOG     WCI  25
LINCOLN        LGT SNOW  33  32  96 N17       29.64R FOG     WCI  22
FALLS CITY     CLOUDY    46  39  76 NE13G21   29.45F
LAMONI         CLOUDY    44  43  96 NE17G25   29.48F FOG
DES MOINES     DRIZZLE   42  40  92 E15G26    29.58F FOG     WCI  34

$$





USA.gov is the U.S. government's official web portal to all federal, state and local government web resources and services.